BLY17 EGCC-EGNM

Flight info

Callsign BLY17
Flight time 0h 30m
Altitude 7000
Route POL DCT LBA
Aircraft B738/M-SDE2E3FGHIRWXY/LB1

Departure

Time 2026-05-01 13:45
Airport Manchester Airport (EGCC)

Arrival

Time 2026-05-01 14:16
Airport Leeds Bradford Airport (EGNM)
Time Latitude Longitude Altitude Speed Heading
2026-05-01 12:59 53.36961 -2.28997 254 ft 0 kts 314°
2026-05-01 13:28 53.36952 -2.28981 254 ft 4 kts 314°
2026-05-01 13:28 53.36936 -2.28955 254 ft 4 kts 308°
2026-05-01 13:29 53.36935 -2.28918 254 ft 4 kts 225°
2026-05-01 13:29 53.36899 -2.28979 254 ft 2 kts 225°
2026-05-01 13:30 53.36898 -2.28981 254 ft 0 kts 225°
2026-05-01 13:33 53.36878 -2.29014 254 ft 6 kts 225°
2026-05-01 13:34 53.36798 -2.29096 254 ft 7 kts 200°
2026-05-01 13:34 53.36699 -2.29048 254 ft 12 kts 135°
2026-05-01 13:35 53.36595 -2.28825 254 ft 11 kts 121°
2026-05-01 13:35 53.36553 -2.28715 254 ft 11 kts 131°
2026-05-01 13:35 53.36429 -2.28497 254 ft 14 kts 125°
2026-05-01 13:36 53.36381 -2.28348 254 ft 15 kts 129°
2026-05-01 13:36 53.36311 -2.28228 254 ft 14 kts 135°
2026-05-01 13:36 53.36168 -2.27990 254 ft 16 kts 140°
2026-05-01 13:37 53.36076 -2.27869 254 ft 17 kts 141°
2026-05-01 13:37 53.35981 -2.27750 254 ft 17 kts 152°
2026-05-01 13:37 53.35868 -2.27730 254 ft 16 kts 183°
2026-05-01 13:37 53.35765 -2.27663 250 ft 17 kts 153°
2026-05-01 13:38 53.35582 -2.27471 244 ft 7 kts 142°
2026-05-01 13:38 53.35575 -2.27462 244 ft 0 kts 142°
2026-05-01 13:42 53.35555 -2.27435 245 ft 7 kts 141°
2026-05-01 13:42 53.35498 -2.27358 247 ft 14 kts 141°
2026-05-01 13:42 53.35411 -2.27240 245 ft 18 kts 141°
2026-05-01 13:43 53.35292 -2.27202 240 ft 19 kts 191°
2026-05-01 13:43 53.35169 -2.27244 230 ft 10 kts 192°
2026-05-01 13:43 53.35155 -2.27249 231 ft 0 kts 191°
2026-05-01 13:43 53.35154 -2.27249 231 ft 1 kts 191°
2026-05-01 13:44 53.35115 -2.27263 228 ft 13 kts 192°
2026-05-01 13:44 53.35019 -2.27310 224 ft 15 kts 215°
2026-05-01 13:44 53.34998 -2.27344 224 ft 3 kts 229°
2026-05-01 13:44 53.34839 -2.27672 222 ft 72 kts 231°
2026-05-01 13:45 53.34388 -2.28604 224 ft 132 kts 231°
2026-05-01 13:45 53.33738 -2.29935 575 ft 153 kts 230°
2026-05-01 13:45 53.33096 -2.31259 1472 ft 136 kts 230°
2026-05-01 13:45 53.32526 -2.32418 2235 ft 123 kts 226°
2026-05-01 13:46 53.31978 -2.33566 2573 ft 139 kts 238°
2026-05-01 13:46 53.31601 -2.35188 2871 ft 163 kts 255°
2026-05-01 13:46 53.31572 -2.37270 3097 ft 196 kts 277°
2026-05-01 13:46 53.32108 -2.39530 3306 ft 225 kts 304°
2026-05-01 13:47 53.33379 -2.41259 3528 ft 250 kts 336°
2026-05-01 13:47 53.35096 -2.41890 3949 ft 264 kts 349°
2026-05-01 13:47 53.36958 -2.42550 4390 ft 279 kts 345°
2026-05-01 13:47 53.38865 -2.43385 4969 ft 286 kts 343°
2026-05-01 13:48 53.40776 -2.44294 4974 ft 284 kts 342°
2026-05-01 13:48 53.42663 -2.45250 5102 ft 287 kts 341°
2026-05-01 13:48 53.44595 -2.46236 5800 ft 291 kts 345°
2026-05-01 13:48 53.46614 -2.46330 6541 ft 297 kts 15°
2026-05-01 13:49 53.48464 -2.44836 7027 ft 296 kts 39°
2026-05-01 13:49 53.50048 -2.42643 7131 ft 295 kts 43°
2026-05-01 13:49 53.51609 -2.40396 7139 ft 296 kts 43°
2026-05-01 13:49 53.53158 -2.38186 7147 ft 296 kts 43°
2026-05-01 13:50 53.54747 -2.35996 7138 ft 296 kts 40°
2026-05-01 13:50 53.56373 -2.33886 7144 ft 295 kts 40°
2026-05-01 13:50 53.58008 -2.31781 7140 ft 295 kts 40°
2026-05-01 13:50 53.59629 -2.29678 7146 ft 294 kts 40°
2026-05-01 13:51 53.61247 -2.27569 7145 ft 295 kts 40°
2026-05-01 13:51 53.62864 -2.25457 7147 ft 295 kts 40°
2026-05-01 13:51 53.64488 -2.23329 7145 ft 296 kts 40°
2026-05-01 13:51 53.66124 -2.21206 7148 ft 297 kts 39°
2026-05-01 13:52 53.67770 -2.19109 7138 ft 297 kts 40°
2026-05-01 13:52 53.69411 -2.16991 7138 ft 297 kts 40°
2026-05-01 13:52 53.71051 -2.14874 7135 ft 296 kts 40°
2026-05-01 13:52 53.72682 -2.12764 7142 ft 295 kts 39°
2026-05-01 13:53 53.74314 -2.10645 7139 ft 296 kts 40°
2026-05-01 13:53 53.77559 -2.06384 7126 ft 295 kts 40°
2026-05-01 13:53 53.79159 -2.04210 7138 ft 295 kts 40°
2026-05-01 13:54 53.80760 -2.02034 7128 ft 296 kts 40°
2026-05-01 13:54 53.82365 -1.99848 7120 ft 296 kts 40°
2026-05-01 13:54 53.83973 -1.97652 7128 ft 296 kts 40°
2026-05-01 13:54 53.85625 -1.95582 7113 ft 297 kts 27°
2026-05-01 13:55 53.87544 -1.94345 7032 ft 294 kts 17°
2026-05-01 13:55 53.89497 -1.93374 6695 ft 290 kts 15°
2026-05-01 13:55 53.91440 -1.92439 6202 ft 291 kts 15°
2026-05-01 13:55 53.93385 -1.91508 5833 ft 286 kts 15°
2026-05-01 13:56 53.95256 -1.90620 5656 ft 274 kts 15°
2026-05-01 13:56 53.97043 -1.89773 5551 ft 260 kts 15°
2026-05-01 13:56 53.98741 -1.88969 5439 ft 248 kts 15°
2026-05-01 13:56 54.00363 -1.88211 5337 ft 235 kts
2026-05-01 13:57 54.01940 -1.88043 5226 ft 221 kts
2026-05-01 13:57 54.02915 -1.87661 5143 ft 215 kts 28°
2026-05-01 13:57 54.04188 -1.85281 4859 ft 203 kts 79°
2026-05-01 13:57 54.04182 -1.82969 4517 ft 196 kts 117°
2026-05-01 13:58 54.03362 -1.81248 4237 ft 186 kts 156°
2026-05-01 13:58 54.02152 -1.80769 4056 ft 174 kts 180°
2026-05-01 13:58 54.00996 -1.80699 4004 ft 160 kts 180°
2026-05-01 13:58 53.99874 -1.80631 4039 ft 166 kts 179°
2026-05-01 13:59 53.98747 -1.80584 4047 ft 153 kts 180°
2026-05-01 13:59 53.97745 -1.80545 4000 ft 139 kts 180°
2026-05-01 13:59 53.96767 -1.80508 4001 ft 142 kts 180°
2026-05-01 13:59 53.95791 -1.80433 3849 ft 143 kts 172°
2026-05-01 14:00 53.94949 -1.79487 3280 ft 155 kts 127°
2026-05-01 14:00 53.94337 -1.78078 2941 ft 140 kts 137°
2026-05-01 14:00 53.93658 -1.76936 2741 ft 137 kts 140°
2026-05-01 14:00 53.92963 -1.75821 2516 ft 137 kts 141°
2026-05-01 14:01 53.92248 -1.74768 2316 ft 136 kts 141°
2026-05-01 14:01 53.91550 -1.73679 2072 ft 140 kts 140°
2026-05-01 14:01 53.90837 -1.72574 1878 ft 135 kts 143°
2026-05-01 14:01 53.90146 -1.71526 1676 ft 135 kts 142°
2026-05-01 14:02 53.89440 -1.70441 1430 ft 137 kts 141°
2026-05-01 14:02 53.88723 -1.69337 1268 ft 142 kts 139°
2026-05-01 14:02 53.87980 -1.68192 1006 ft 144 kts 139°
2026-05-01 14:02 53.87252 -1.67080 756 ft 140 kts 140°
2026-05-01 14:03 53.86495 -1.65907 904 ft 162 kts 139°
2026-05-01 14:03 53.85582 -1.64487 1464 ft 187 kts 139°
2026-05-01 14:03 53.84672 -1.63020 2654 ft 179 kts 139°
2026-05-01 14:03 53.83522 -1.61895 2907 ft 203 kts 175°
2026-05-01 14:04 53.82057 -1.62298 2998 ft 231 kts 194°
2026-05-01 14:04 53.80361 -1.62390 2992 ft 255 kts 166°
2026-05-01 14:04 53.78799 -1.61019 3059 ft 256 kts 142°
2026-05-01 14:04 53.77891 -1.59734 3404 ft 258 kts 142°
2026-05-01 14:05 53.76056 -1.57141 3942 ft 258 kts 141°
2026-05-01 14:05 53.74734 -1.55138 3970 ft 252 kts 139°
2026-05-01 14:05 53.73488 -1.53079 3987 ft 252 kts 138°
2026-05-01 14:05 53.72235 -1.50980 3976 ft 256 kts 139°
2026-05-01 14:06 53.70769 -1.49338 3995 ft 253 kts 164°
2026-05-01 14:06 53.69053 -1.49121 4015 ft 249 kts 192°
2026-05-01 14:06 53.67502 -1.50388 3996 ft 254 kts 220°
2026-05-01 14:06 53.66504 -1.52850 3993 ft 259 kts 249°
2026-05-01 14:07 53.66340 -1.55888 3997 ft 267 kts 277°
2026-05-01 14:07 53.67064 -1.58780 3994 ft 274 kts 306°
2026-05-01 14:07 53.68453 -1.61008 3997 ft 276 kts 321°
2026-05-01 14:08 53.71479 -1.64966 3985 ft 275 kts 320°
2026-05-01 14:08 53.72992 -1.66948 4004 ft 275 kts 320°
2026-05-01 14:08 53.74503 -1.68910 3906 ft 274 kts 320°
2026-05-01 14:08 53.75998 -1.70843 3746 ft 266 kts 320°
2026-05-01 14:09 53.77422 -1.72700 3634 ft 252 kts 320°
2026-05-01 14:09 53.78323 -1.73887 3564 ft 243 kts 320°
2026-05-01 14:09 53.79629 -1.75607 3457 ft 231 kts 320°
2026-05-01 14:09 53.80838 -1.77203 3375 ft 214 kts 320°
2026-05-01 14:10 53.81973 -1.78699 3221 ft 200 kts 320°
2026-05-01 14:10 53.83068 -1.80144 3015 ft 201 kts 320°
2026-05-01 14:10 53.84158 -1.81558 2996 ft 193 kts 320°
2026-05-01 14:10 53.85200 -1.82891 2965 ft 183 kts 320°
2026-05-01 14:11 53.86208 -1.84162 2997 ft 179 kts 320°
2026-05-01 14:11 53.88196 -1.86645 3005 ft 178 kts 329°
2026-05-01 14:11 53.89387 -1.87001 3002 ft 175 kts 14°
2026-05-01 14:12 53.90426 -1.85888 3007 ft 181 kts 59°
2026-05-01 14:12 53.90988 -1.84070 2983 ft 169 kts 69°
2026-05-01 14:12 53.91449 -1.82306 3029 ft 160 kts 69°
2026-05-01 14:12 53.91865 -1.80562 2861 ft 162 kts 73°
2026-05-01 14:13 53.92211 -1.78791 2730 ft 158 kts 76°
2026-05-01 14:13 53.92522 -1.76996 2397 ft 153 kts 83°
2026-05-01 14:13 53.92415 -1.75332 2153 ft 138 kts 118°
2026-05-01 14:13 53.91900 -1.74052 1945 ft 129 kts 142°
2026-05-01 14:14 53.91209 -1.73113 1814 ft 127 kts 143°
2026-05-01 14:14 53.90561 -1.72142 1791 ft 122 kts 141°
2026-05-01 14:14 53.89911 -1.71140 1596 ft 131 kts 140°
2026-05-01 14:14 53.89219 -1.70082 1368 ft 137 kts 140°
2026-05-01 14:15 53.88504 -1.68988 1166 ft 140 kts 140°
2026-05-01 14:15 53.87767 -1.67862 918 ft 144 kts 139°
2026-05-01 14:15 53.87024 -1.66719 692 ft 143 kts 141°
2026-05-01 14:15 53.86371 -1.65717 660 ft 101 kts 138°
2026-05-01 14:16 53.86013 -1.65169 657 ft 38 kts 137°
2026-05-01 14:16 53.85896 -1.64996 651 ft 18 kts 144°
2026-05-01 14:16 53.85887 -1.64923 651 ft 5 kts
2026-05-01 14:16 53.85909 -1.64968 651 ft 5 kts 299°
2026-05-01 14:17 53.85933 -1.65035 652 ft 9 kts 306°
2026-05-01 14:17 53.85991 -1.65128 655 ft 13 kts 321°
2026-05-01 14:17 53.86062 -1.65237 657 ft 14 kts 317°
2026-05-01 14:17 53.86131 -1.65344 662 ft 13 kts 317°
2026-05-01 14:18 53.86204 -1.65450 661 ft 15 kts 332°
2026-05-01 14:18 53.86307 -1.65459 663 ft 15 kts
2026-05-01 14:18 53.86403 -1.65451 665 ft 11 kts
2026-05-01 14:18 53.86411 -1.65450 665 ft 0 kts
2026-05-01 14:20 53.86298 -1.65448 660 ft 15 kts 178°
2026-05-01 14:20 53.86209 -1.65444 661 ft 12 kts 204°
2026-05-01 14:21 53.86245 -1.65464 662 ft 11 kts 359°
2026-05-01 14:21 53.86319 -1.65458 663 ft 15 kts
2026-05-01 14:21 53.86427 -1.65448 665 ft 15 kts
2026-05-01 14:22 53.86643 -1.65426 661 ft 15 kts
2026-05-01 14:22 53.86714 -1.65423 660 ft 8 kts 337°
2026-05-01 14:22 53.86737 -1.65500 662 ft 9 kts 271°
2026-05-01 14:22 53.86739 -1.65621 665 ft 15 kts 270°
2026-05-01 14:23 53.86763 -1.65744 666 ft 9 kts 323°
2026-05-01 14:23 53.86807 -1.65782 666 ft 8 kts 299°
2026-05-01 14:23 53.86825 -1.65836 667 ft 7 kts 346°
2026-05-01 14:23 53.86865 -1.65839 666 ft 7 kts
2026-05-01 14:24 53.86875 -1.65839 666 ft 2 kts